EW8016 Weather Reports


Display with metric or nautical units.
time (UTC)temp
F
wind
direction
speed
MPH
gust
MPH
rain 1hr
in
rain 24hr
in
rain mn
in
humidity
%
barometer
mb
20260902083503 67 229 4.0 9.0 0.00 0.01 0.00 72 1020.0
20260902083003 67 229 4.0 10.0 0.00 0.01 0.00 72 1020.1
20260902082717 67 225 4.0 10.0 0.00 0.01 0.00 72 1019.9
20260902082003 67 215 4.0 11.0 0.00 0.01 0.00 72 1019.8
20260902081717 67 210 4.0 11.0 0.00 0.01 0.00 74 1019.8
20260902081003 66 188 4.0 9.0 0.00 0.01 0.00 77 1019.9
20260902080503 66 169 3.0 7.0 0.00 0.01 0.00 79 1019.9
20260902080003 65 170 2.0 6.0 0.00 0.01 0.00 81 1019.9
20260902075503 64 171 2.0 9.0 0.00 0.01 0.00 82 1019.9
20260902075003 63 185 3.0 9.0 0.00 0.01 0.00 82 1019.8
20260902074503 63 212 2.0 6.0 0.00 0.01 0.00 82 1019.9
20260902074003 63 236 3.0 10.0 0.00 0.01 0.00 83 1020.0
20260902073717 63 234 3.0 10.0 0.00 0.01 0.00 83 1020.0
20260902073003 63 169 3.0 7.0 0.00 0.01 0.00 84 1020.0
20260902072503 62 152 3.0 7.0 0.00 0.01 0.00 85 1020.0
20260902072003 62 155 3.0 7.0 0.00 0.01 0.00 87 1019.9
20260902071503 61 160 3.0 6.0 0.00 0.01 0.00 87 1019.9
20260902071003 61 165 2.0 6.0 0.00 0.01 0.00 88 1019.8
20260902070503 60 172 2.0 6.0 0.00 0.01 0.00 89 1019.9
20260902070004 60 170 2.0 6.0 0.00 0.01 0.00 90 1019.8
20260902065503 60 162 2.0 6.0 0.00 0.01 0.00 91 1019.7
20260902065003 59 155 1.0 3.0 0.00 0.01 0.00 92 1019.7
20260902064503 58 155 1.0 4.0 0.00 0.01 0.00 92 1019.6
20260902064003 58 155 1.0 5.0 0.00 0.01 0.00 92 1019.6
20260902063503 58 155 1.0 5.0 0.00 0.01 0.00 93 1019.7
20260902063003 58 149 2.0 5.0 0.00 0.01 0.00 93 1019.6
20260902062503 57 141 2.0 5.0 0.00 0.01 0.00 94 1019.6
20260902062003 57 137 1.0 3.0 0.00 0.01 0.00 94 1019.6
20260902061503 57 138 0.0 3.0 0.00 0.01 0.00 94 1019.6
20260902061003 57 0 0.0 0.0 0.00 0.01 0.00 94 1019.5
20260902060716 56 0 0.0 0.0 0.00 0.01 0.00 94 1019.6
20260902060003 56 0 0.0 0.0 0.00 0.01 0.00 94 1019.6
20260902055503 56 0 0.0 0.0 0.00 0.01 0.00 94 1019.6
20260902055003 56 0 0.0 0.0 0.00 0.01 0.00 94 1019.7
20260902054503 56 0 0.0 0.0 0.00 0.01 0.00 94 1019.7
20260902054003 56 0 0.0 0.0 0.00 0.01 0.00 94 1019.7
20260902053503 56 0 0.0 0.0 0.00 0.01 0.00 94 1019.6
20260902053217 56 0 0.0 0.0 0.00 0.01 0.00 94 1019.6
20260902052503 55 0 0.0 0.0 0.00 0.01 0.00 94 1019.6
20260902052003 55 0 0.0 0.0 0.00 0.01 0.00 94 1019.6
20260902051503 55 0 0.0 0.0 0.00 0.01 0.00 94 1019.6
20260902051217 55 0 0.0 0.0 0.00 0.01 0.00 94 1019.5
20260902050503 55 0 0.0 0.0 0.00 0.01 0.00 94 1019.6
20260902050005 55 0 0.0 0.0 0.00 0.01 0.00 94 1019.6
20260902045718 55 0 0.0 0.0 0.00 0.01 0.00 94 1019.6
20260902045003 55 0 0.0 0.0 0.00 0.01 0.00 94 1019.6
20260902044503 55 0 0.0 0.0 0.00 0.01 0.00 94 1019.5
20260902044217 55 0 0.0 0.0 0.00 0.01 0.00 94 1019.5
20260902043503 55 0 0.0 0.0 0.00 0.01 0.00 94 1019.6
20260902043003 55 0 0.0 0.0 0.00 0.01 0.00 94 1019.5
20260902042503 55 0 0.0 0.0 0.00 0.01 0.00 93 1019.4
20260902042003 55 0 0.0 0.0 0.00 0.01 0.00 93 1019.6
20260902041503 55 0 0.0 0.0 0.00 0.01 0.00 93 1019.6
20260902041217 55 0 0.0 0.0 0.00 0.01 0.00 93 1019.6
20260902040503 55 0 0.0 0.0 0.00 0.01 0.00 93 1019.5
20260902040217 55 0 0.0 0.0 0.00 0.01 0.00 93 1019.5
20260902035503 55 0 0.0 0.0 0.00 0.01 0.00 93 1019.7
20260902035003 55 0 0.0 0.0 0.00 0.01 0.00 93 1019.6
20260902034718 55 0 0.0 0.0 0.00 0.01 0.00 93 1019.6
20260902034003 55 0 0.0 0.0 0.00 0.01 0.00 93 1019.7
20260902033503 55 0 0.0 0.0 0.00 0.01 0.00 93 1019.8
20260902033217 55 0 0.0 0.0 0.00 0.01 0.00 93 1019.8
20260902032503 55 163 1.0 2.0 0.00 0.01 0.00 93 1019.8
20260902032003 55 163 1.0 2.0 0.00 0.01 0.00 93 1019.8
20260902031503 55 163 0.0 2.0 0.00 0.01 0.00 93 1019.8
20260902031003 55 0 0.0 0.0 0.00 0.01 0.00 93 1019.8
20260902030503 55 0 0.0 0.0 0.00 0.01 0.00 94 1019.9
20260902030003 55 0 0.0 0.0 0.00 0.01 0.00 94 1019.9
20260902025503 55 0 0.0 0.0 0.00 0.01 0.00 93 1020.0
20260902025216 55 0 0.0 0.0 0.00 0.01 0.00 93 1020.0
20260902024505 55 0 0.0 0.0 0.00 0.01 0.00 93 1020.1
20260902024218 55 0 0.0 0.0 0.00 0.01 0.00 93 1020.1
20260902023717 55 0 0.0 0.0 0.00 0.01 0.00 93 1020.0
20260902023003 55 0 0.0 0.0 0.00 0.01 0.00 93 1020.1
20260902022503 55 0 0.0 0.0 0.00 0.01 0.00 93 1020.2
20260902022003 55 159 0.0 4.0 0.00 0.01 0.00 93 1020.3
20260902021717 55 159 1.0 4.0 0.00 0.01 0.00 93 1020.3
20260902021003 55 159 0.0 2.0 0.00 0.01 0.00 93 1020.4
20260902020717 55 0 0.0 0.0 0.00 0.01 0.00 93 1020.3
20260902020218 55 0 0.0 0.0 0.00 0.01 0.00 93 1020.3
20260902015503 55 0 0.0 0.0 0.00 0.01 0.00 94 1020.3
20260902015003 55 0 0.0 0.0 0.00 0.01 0.00 93 1020.2
20260902014503 55 0 0.0 0.0 0.00 0.01 0.00 93 1020.1
20260902014003 55 0 0.0 0.0 0.00 0.01 0.00 93 1020.2
20260902013503 55 0 0.0 0.0 0.00 0.01 0.00 94 1020.2
20260902013003 55 0 0.0 0.0 0.00 0.01 0.00 94 1020.2
20260902012503 55 0 0.0 0.0 0.00 0.01 0.00 94 1020.2
20260902012003 55 0 0.0 0.0 0.00 0.01 0.00 94 1020.3
20260902011503 55 0 0.0 0.0 0.00 0.01 0.00 94 1020.2
20260902011003 55 0 0.0 0.0 0.00 0.01 0.00 93 1020.1
20260902010717 54 0 0.0 0.0 0.00 0.01 0.00 93 1020.1
20260902010003 54 0 0.0 0.0 0.00 0.01 0.00 93 1020.1
20260902005503 54 0 0.0 0.0 0.00 0.01 0.00 93 1020.1
20260902005003 54 0 0.0 0.0 0.00 0.01 0.00 93 1020.1
20260902004503 54 0 0.0 0.0 0.00 0.01 0.00 93 1020.2
20260902004003 54 0 0.0 0.0 0.00 0.01 0.00 93 1020.2
20260902003503 54 0 0.0 0.0 0.00 0.01 0.00 93 1020.3
20260902003005 54 0 0.0 0.0 0.00 0.01 0.00 93 1020.2
20260902002503 54 303 0.0 1.0 0.00 0.01 0.00 93 1020.3
20260902002003 54 303 1.0 2.0 0.00 0.01 0.00 93 1020.2
20260902001716 54 303 1.0 2.0 0.00 0.01 0.00 93 1020.2
20260902001217 54 303 1.0 2.0 0.00 0.01 0.00 93 1020.3
20260902000716 54 303 0.0 1.0 0.00 0.01 0.00 93 1020.4
20260902000003 54 0 0.0 0.0 0.00 0.01 0.00 93 1020.3
20260901235504 54 0 0.0 0.0 0.00 0.01 0.00 93 1020.3
20260901235217 54 0 0.0 0.0 0.00 0.01 0.00 93 1020.2
20260901234503 54 0 0.0 0.0 0.00 0.01 0.00 93 1020.3
20260901234003 54 0 0.0 0.0 0.00 0.01 0.00 93 1020.2
20260901233718 54 0 0.0 0.0 0.00 0.01 0.00 93 1020.3
20260901233003 55 0 0.0 0.0 0.00 0.01 0.00 93 1020.3
20260901232503 55 0 0.0 0.0 0.00 0.01 0.00 93 1020.3
20260901232003 55 0 0.0 0.0 0.00 0.01 0.00 93 1020.2
20260901231503 55 0 0.0 0.0 0.00 0.01 0.00 93 1020.3
20260901231003 55 0 0.0 0.0 0.00 0.01 0.00 92 1020.4
20260901230503 55 0 0.0 0.0 0.00 0.01 0.00 92 1020.6
20260901230004 55 0 0.0 0.0 0.00 0.01 0.00 93 1020.5
20260901225718 55 0 0.0 0.0 0.00 0.01 0.00 93 1020.4
20260901225219 55 303 0.0 2.0 0.00 0.01 0.00 93 1020.3
20260901224503 55 0 0.0 0.0 0.00 0.01 0.00 92 1020.4
20260901224003 55 0 0.0 0.0 0.00 0.01 0.00 92 1020.3
20260901223503 55 0 0.0 0.0 0.00 0.01 0.00 92 1020.3
20260901223003 55 0 0.0 0.0 0.00 0.01 0.00 92 1020.3
20260901222503 55 0 0.0 0.0 0.00 0.01 0.00 92 1020.5
20260901222217 55 0 0.0 0.0 0.00 0.01 0.00 92 1020.5
20260901221503 56 0 0.0 0.0 0.00 0.01 0.00 92 1020.8
20260901221003 56 0 0.0 0.0 0.00 0.01 0.00 92 1020.8
20260901220503 56 0 0.0 0.0 0.00 0.01 0.00 92 1021.0
20260901220004 56 0 0.0 0.0 0.00 0.01 0.00 92 1020.9
20260901215503 56 0 0.0 0.0 0.00 0.01 0.01 92 1020.9
20260901215216 56 0 0.0 0.0 0.00 0.01 0.01 92 1020.9
20260901214503 56 0 0.0 0.0 0.00 0.01 0.01 91 1021.0
20260901214003 56 0 0.0 0.0 0.00 0.01 0.01 92 1021.0
20260901213503 56 0 0.0 0.0 0.00 0.01 0.01 91 1020.9
20260901213003 56 0 0.0 0.0 0.00 0.01 0.01 91 1020.9
20260901212503 56 0 0.0 0.0 0.00 0.01 0.01 91 1021.0
20260901212003 56 0 0.0 0.0 0.00 0.01 0.01 91 1020.9
20260901211503 56 0 0.0 0.0 0.00 0.01 0.01 91 1021.0
20260901211218 56 0 0.0 0.0 0.00 0.01 0.01 91 1021.0
20260901210503 57 0 0.0 0.0 0.00 0.01 0.01 90 1020.9
20260901210003 57 0 0.0 0.0 0.00 0.01 0.01 90 1020.9
20260901205503 57 0 0.0 0.0 0.00 0.01 0.01 90 1020.9
20260901205218 57 0 0.0 0.0 0.00 0.01 0.01 90 1020.8
20260901204503 57 0 0.0 0.0 0.00 0.01 0.01 89 1020.7
20260901204218 57 0 0.0 0.0 0.00 0.01 0.01 89 1020.7
20260901203503 58 0 0.0 0.0 0.00 0.01 0.01 89 1020.7
20260901203003 58 0 0.0 0.0 0.00 0.01 0.01 88 1020.6
20260901202503 58 0 0.0 0.0 0.00 0.01 0.01 88 1020.6
20260901202003 58 0 0.0 0.0 0.00 0.01 0.01 88 1020.6
20260901201717 58 0 0.0 0.0 0.00 0.01 0.01 88 1020.5
20260901201003 58 0 0.0 0.0 0.00 0.01 0.01 87 1020.5
20260901200503 59 0 0.0 0.0 0.00 0.01 0.01 86 1020.4
20260901200003 59 0 0.0 0.0 0.00 0.01 0.01 86 1020.3
20260901195503 59 0 0.0 0.0 0.00 0.01 0.01 86 1020.3
20260901195003 60 0 0.0 0.0 0.00 0.01 0.01 86 1020.4
20260901194503 60 0 0.0 0.0 0.00 0.01 0.01 84 1020.4
20260901194003 60 0 0.0 0.0 0.00 0.01 0.01 85 1020.4
20260901193503 60 0 0.0 0.0 0.00 0.01 0.01 84 1020.4
20260901193220 60 0 0.0 0.0 0.00 0.01 0.01 84 1020.4
20260901192716 61 0 0.0 0.0 0.00 0.01 0.01 83 1020.3
20260901192003 61 0 0.0 0.0 0.00 0.01 0.01 82 1020.4
20260901191503 62 0 0.0 0.0 0.00 0.01 0.01 82 1020.4
20260901191003 62 0 0.0 0.0 0.00 0.01 0.01 80 1020.4
20260901190503 62 0 0.0 0.0 0.00 0.01 0.01 80 1020.4
20260901190217 62 0 0.0 0.0 0.00 0.01 0.01 80 1020.3
20260901185503 63 0 0.0 0.0 0.00 0.02 0.01 79 1020.4
20260901185217 63 0 0.0 0.0 0.00 0.02 0.01 78 1020.5
20260901184718 64 0 0.0 0.0 0.00 0.04 0.01 77 1020.4
20260901184003 64 0 0.0 0.0 0.00 0.04 0.01 76 1020.3
20260901183503 65 0 0.0 0.0 0.00 0.04 0.01 74 1020.3
20260901183003 65 0 0.0 0.0 0.00 0.04 0.01 74 1020.4
20260901182718 65 303 0.0 1.0 0.00 0.04 0.01 74 1020.3
20260901182003 66 303 0.0 1.0 0.00 0.04 0.01 74 1020.2
20260901181718 66 303 0.0 1.0 0.00 0.04 0.01 73 1020.3
20260901181003 66 303 1.0 3.0 0.00 0.04 0.01 73 1020.3
20260901180718 66 301 1.0 4.0 0.00 0.04 0.01 72 1020.3
20260901180003 66 305 2.0 4.0 0.00 0.04 0.01 71 1020.2
20260901175503 67 306 3.0 5.0 0.00 0.04 0.01 71 1020.2
20260901175217 67 306 3.0 5.0 0.00 0.04 0.01 70 1020.2
20260901174718 67 307 3.0 5.0 0.00 0.04 0.01 70 1020.3
20260901174217 67 309 3.0 7.0 0.00 0.04 0.01 69 1020.2
20260901173503 68 324 3.0 8.0 0.00 0.04 0.01 68 1020.2
20260901173003 68 314 3.0 8.0 0.00 0.04 0.01 68 1020.2
20260901172718 69 310 3.0 8.0 0.00 0.04 0.01 67 1020.1
20260901172003 69 302 3.0 7.0 0.00 0.04 0.01 67 1020.1
20260901171718 69 306 3.0 7.0 0.00 0.04 0.01 67 1020.1
20260901171003 69 307 3.0 7.0 0.00 0.04 0.01 66 1020.1
20260901170503 69 295 3.0 7.0 0.00 0.04 0.01 64 1020.1
20260901170003 70 281 3.0 7.0 0.00 0.04 0.01 64 1020.1
20260901165503 70 281 4.0 7.0 0.00 0.04 0.01 64 1020.1
20260901165217 70 291 4.0 11.0 0.00 0.04 0.01 64 1020.0
20260901164717 69 307 4.0 11.0 0.00 0.04 0.01 64 1020.1
20260901164216 70 307 3.0 8.0 0.00 0.04 0.01 63 1020.0
20260901163503 70 288 3.0 8.0 0.00 0.04 0.01 62 1020.0
20260901163216 70 290 4.0 8.0 0.00 0.04 0.01 62 1020.0
20260901162503 70 299 4.0 9.0 0.00 0.04 0.01 63 1020.0
20260901162003 70 307 5.0 10.0 0.00 0.04 0.01 62 1019.9
20260901161503 70 308 5.0 11.0 0.00 0.04 0.01 61 1020.0
20260901161003 71 299 5.0 11.0 0.00 0.04 0.01 61 1019.9
20260901160503 71 286 4.0 9.0 0.00 0.04 0.01 60 1019.8
20260901160003 70 290 5.0 11.0 0.00 0.04 0.01 61 1019.8
20260901155503 71 305 5.0 11.0 0.00 0.04 0.01 60 1019.8
20260901155003 71 312 5.0 11.0 0.00 0.04 0.01 60 1019.7
20260901154504 71 304 5.0 11.0 0.00 0.04 0.01 61 1019.8
20260901154003 71 307 6.0 13.0 0.00 0.04 0.01 60 1019.8
20260901153503 71 295 6.0 13.0 0.00 0.04 0.01 60 1019.9
20260901153003 71 278 6.0 12.0 0.00 0.04 0.01 59 1019.8
20260901152503 72 286 6.0 12.0 0.00 0.04 0.01 57 1019.9
20260901152003 72 296 4.0 10.0 0.00 0.04 0.01 57 1019.8
20260901151503 72 302 5.0 10.0 0.00 0.04 0.01 56 1019.8
20260901151003 72 293 6.0 11.0 0.00 0.04 0.01 55 1019.7
20260901150503 73 287 6.0 12.0 0.00 0.04 0.01 54 1019.7
20260901150003 73 277 6.0 12.0 0.00 0.04 0.01 52 1019.7
20260901145503 73 271 7.0 13.0 0.00 0.04 0.01 51 1019.7
20260901145003 73 274 6.0 13.0 0.00 0.04 0.01 52 1019.7
20260901144503 73 271 4.0 10.0 0.00 0.04 0.01 53 1019.7
20260901144004 73 274 5.0 10.0 0.00 0.04 0.01 55 1019.6
20260901143503 72 273 6.0 13.0 0.00 0.04 0.01 56 1019.7
20260901143003 72 269 6.0 13.0 0.00 0.04 0.01 55 1019.6
20260901142719 71 269 5.0 12.0 0.00 0.04 0.01 56 1019.6
20260901142005 71 284 6.0 12.0 0.00 0.04 0.01 57 1019.7
20260901141719 71 286 5.0 10.0 0.00 0.04 0.01 57 1019.7
20260901141003 71 282 6.0 11.0 0.00 0.04 0.01 57 1019.7
20260901140503 71 275 6.0 11.0 0.00 0.04 0.01 57 1019.7
20260901140003 71 268 5.0 11.0 0.00 0.04 0.01 59 1019.7
20260901135504 70 279 6.0 12.0 0.00 0.04 0.01 60 1019.7
20260901135003 71 293 7.0 14.0 0.00 0.04 0.01 58 1019.7
20260901134503 71 298 6.0 14.0 0.00 0.04 0.01 57 1019.7
20260901134003 72 292 7.0 12.0 0.00 0.04 0.01 56 1019.7
20260901133504 72 289 8.0 17.0 0.00 0.05 0.01 56 1019.6
20260901133217 72 285 8.0 17.0 0.00 0.07 0.01 56 1019.5
20260901132505 71 267 7.0 16.0 0.00 0.07 0.01 60 1019.4
20260901132003 71 266 6.0 16.0 0.00 0.09 0.01 59 1019.4
20260901131503 71 277 7.0 12.0 0.00 0.09 0.01 58 1019.5
20260901131219 71 278 7.0 12.0 0.00 0.09 0.01 58 1019.5
20260901130505 72 286 7.0 14.0 0.00 0.09 0.01 57 1019.5
20260901130005 72 289 8.0 14.0 0.00 0.09 0.01 58 1019.4
20260901125718 72 289 8.0 15.0 0.00 0.09 0.01 60 1019.5
20260901125219 73 289 9.0 15.0 0.00 0.09 0.01 58 1019.5
20260901124503 73 300 8.0 16.0 0.00 0.09 0.01 59 1019.4
20260901124003 72 298 7.0 15.0 0.00 0.09 0.01 59 1019.4
20260901123503 72 291 6.0 14.0 0.00 0.09 0.01 59 1019.3
20260901123005 72 286 5.0 11.0 0.00 0.09 0.01 61 1019.5
20260901122503 72 284 6.0 13.0 0.00 0.09 0.01 62 1019.4
20260901122005 71 293 7.0 15.0 0.00 0.09 0.01 62 1019.4
20260901121505 72 289 8.0 15.0 0.00 0.09 0.01 62 1019.4
20260901121005 72 287 8.0 15.0 0.00 0.09 0.01 62 1019.4
20260901120720 71 288 8.0 15.0 0.00 0.09 0.01 62 1019.4
20260901120003 71 285 8.0 18.0 0.00 0.09 0.01 63 1019.3
20260901115718 70 286 8.0 18.0 0.00 0.09 0.01 64 1019.3
20260901115003 71 285 9.0 17.0 0.00 0.09 0.01 62 1019.3
20260901114503 70 275 6.0 16.0 0.00 0.09 0.01 64 1019.1
20260901114004 69 269 5.0 13.0 0.00 0.09 0.01 70 1019.1
20260901113504 68 285 7.0 17.0 0.00 0.09 0.01 67 1019.3
20260901113005 69 288 9.0 17.0 0.00 0.09 0.01 66 1019.3
20260901112504 69 281 7.0 15.0 0.00 0.09 0.01 66 1019.3
20260901112003 69 277 5.0 15.0 0.00 0.09 0.01 68 1019.3
20260901111505 69 274 6.0 12.0 0.00 0.09 0.01 70 1019.1
20260901111003 69 280 6.0 15.0 0.01 0.09 0.01 69 1019.2
20260901110503 70 285 6.0 15.0 0.01 0.09 0.01 69 1019.1
20260901110216 70 282 5.0 15.0 0.01 0.09 0.01 68 1019.2
20260901105719 70 271 4.0 11.0 0.01 0.09 0.01 74 1019.2
20260901105003 69 239 4.0 12.0 0.01 0.09 0.01 76 1019.2
20260901104503 68 236 5.0 12.0 0.01 0.09 0.01 78 1019.3
20260901104005 67 246 5.0 11.0 0.01 0.09 0.01 78 1019.3
20260901103719 67 244 5.0 10.0 0.01 0.09 0.01 79 1019.3
20260901103004 67 258 5.0 11.0 0.01 0.09 0.01 79 1019.4
20260901102505 67 255 5.0 11.0 0.01 0.09 0.01 82 1019.3
20260901102006 66 259 4.0 9.0 0.01 0.12 0.01 86 1019.4
20260901101506 65 274 4.0 9.0 0.01 0.12 0.01 86 1019.3
20260901101003 65 283 4.0 8.0 0.00 0.11 0.00 86 1019.3
20260901100503 65 292 3.0 7.0 0.00 0.11 0.00 87 1019.3
20260901100006 65 286 2.0 6.0 0.00 0.11 0.00 87 1019.4
20260901095503 65 285 3.0 6.0 0.00 0.11 0.00 88 1019.3
20260901095003 65 286 3.0 6.0 0.00 0.11 0.00 88 1019.2
20260901094506 65 282 3.0 7.0 0.00 0.11 0.00 89 1019.3
20260901094003 65 277 3.0 7.0 0.00 0.11 0.00 89 1019.2
20260901093719 65 283 3.0 9.0 0.00 0.11 0.00 89 1019.2
20260901093006 65 274 4.0 9.0 0.00 0.11 0.00 88 1019.3
20260901092503 66 250 4.0 9.0 0.00 0.11 0.00 88 1019.2
20260901092005 65 241 4.0 9.0 0.00 0.11 0.00 88 1019.1
20260901091503 65 261 4.0 8.0 0.00 0.11 0.00 89 1019.2
20260901091005 65 268 4.0 10.0 0.00 0.11 0.00 90 1019.2
20260901090505 65 256 4.0 10.0 0.00 0.11 0.00 91 1019.1
20260901090005 65 242 3.0 8.0 0.00 0.11 0.00 92 1019.1
20260901085505 65 233 3.0 9.0 0.00 0.11 0.00 93 1019.2
20260901085005 65 236 3.0 9.0 0.00 0.11 0.00 93 1019.0
20260901084504 65 250 2.0 6.0 0.00 0.11 0.00 94 1019.0
20260901084005 64 263 2.0 7.0 0.00 0.14 0.00 94 1018.9